TimeEST,TemperatureF,Dew PointF,Humidity,Sea Level PressureIn,VisibilityMPH,Wind Direction,Wind SpeedMPH,Gust SpeedMPH,PrecipitationIn,Events,Conditions,WindDirDegrees,DateUTC
12:54 AM,32.0,21.0,64,30.08,10.0,West,9.2,-,N/A,,Overcast,270,2013-01-04 05:54:00
1:54 AM,30.9,21.9,69,30.09,10.0,West,9.2,-,N/A,,Overcast,260,2013-01-04 06:54:00
2:54 AM,30.9,21.9,69,30.09,10.0,West,11.5,-,N/A,,Overcast,270,2013-01-04 07:54:00
3:54 AM,30.9,21.0,67,30.09,10.0,West,11.5,-,N/A,,Overcast,270,2013-01-04 08:54:00
4:54 AM,30.9,21.0,67,30.09,10.0,West,12.7,21.9,N/A,,Overcast,270,2013-01-04 09:54:00
5:54 AM,30.9,21.0,67,30.09,10.0,West,10.4,-,N/A,,Overcast,260,2013-01-04 10:54:00
6:54 AM,30.9,19.9,64,30.09,10.0,West,10.4,17.3,N/A,,Overcast,270,2013-01-04 11:54:00
7:54 AM,30.9,19.0,61,30.10,10.0,West,10.4,-,N/A,,Overcast,270,2013-01-04 12:54:00
8:54 AM,30.9,19.0,61,30.10,10.0,West,10.4,21.9,N/A,,Overcast,260,2013-01-04 13:54:00
9:54 AM,30.9,19.0,61,30.11,10.0,West,11.5,18.4,N/A,,Overcast,270,2013-01-04 14:54:00
10:54 AM,32.0,18.0,56,30.10,10.0,West,15.0,23.0,N/A,,Overcast,280,2013-01-04 15:54:00
11:54 AM,30.9,19.9,64,30.07,10.0,WSW,20.7,27.6,N/A,,Overcast,250,2013-01-04 16:54:00
12:54 PM,32.0,19.0,59,30.04,10.0,WSW,20.7,-,N/A,,Mostly Cloudy,250,2013-01-04 17:54:00
1:54 PM,33.1,19.0,56,30.01,10.0,West,23.0,32.2,N/A,,Clear,260,2013-01-04 18:54:00
2:54 PM,33.1,18.0,54,30.01,10.0,West,17.3,26.5,N/A,,Clear,260,2013-01-04 19:54:00
3:54 PM,33.1,18.0,54,30.01,10.0,WSW,12.7,20.7,N/A,,Clear,250,2013-01-04 20:54:00
4:54 PM,33.1,18.0,54,30.03,10.0,West,12.7,-,N/A,,Clear,270,2013-01-04 21:54:00
5:54 PM,32.0,19.0,59,30.03,10.0,West,13.8,21.9,N/A,,Clear,270,2013-01-04 22:54:00
6:54 PM,30.9,19.0,61,30.04,10.0,West,9.2,-,N/A,,Clear,270,2013-01-04 23:54:00
7:54 PM,30.9,18.0,59,30.05,10.0,West,11.5,-,N/A,,Clear,260,2013-01-05 00:54:00
8:54 PM,30.9,17.1,57,30.06,10.0,West,9.2,-,N/A,,Clear,270,2013-01-05 01:54:00
9:54 PM,30.0,17.1,59,30.07,10.0,West,8.1,16.1,N/A,,Clear,270,2013-01-05 02:54:00
10:54 PM,28.9,17.1,61,30.08,10.0,West,10.4,-,N/A,,Clear,270,2013-01-05 03:54:00
11:54 PM,26.1,16.0,66,30.10,10.0,WNW,4.6,-,N/A,,Clear,300,2013-01-05 04:54:00